GFSNE_prec_precacc24_237.txt.gz
Total_Precipitation_Accumulation
0.44 0.62 0.71 0.59 0.55 0.51 0.49 0.55 0.64 0.76 0.54 0.19 0.09 0.05 0.05 0.07 0.09 0.08 0.07 0.15 0.31 0.43 0.45 0.47 0.57 0.64 0.57 0.22 0.14 0.16 0.18 0.22 0.20 0.16 0.12 0.08 0.04 0.03
0.33 0.39 0.50 0.48 0.43 0.36 0.29 0.26 0.27 0.37 0.41 0.19 0.09 0.04 0.03 0.04 0.06 0.10 0.05 0.07 0.11 0.25 0.43 0.55 0.69 0.79 0.88 0.76 0.33 0.22 0.20 0.21 0.18 0.13 0.11 0.07 0.05 0.04
0.18 0.19 0.24 0.31 0.39 0.34 0.25 0.20 0.18 0.24 0.35 0.20 0.16 0.11 0.08 0.07 0.07 0.10 0.08 0.10 0.08 0.10 0.15 0.31 0.51 0.68 0.84 0.99 0.88 0.47 0.37 0.32 0.28 0.17 0.14 0.09 0.07 0.03
0.12 0.16 0.24 0.35 0.42 0.42 0.37 0.28 0.24 0.22 0.27 0.31 0.31 0.25 0.16 0.09 0.06 0.05 0.10 0.18 0.19 0.21 0.20 0.21 0.31 0.52 0.66 0.73 0.94 0.98 0.68 0.57 0.46 0.33 0.20 0.09 0.05 0.01
0.14 0.19 0.27 0.38 0.49 0.53 0.51 0.46 0.48 0.49 0.49 0.57 0.64 0.46 0.31 0.23 0.16 0.17 0.17 0.29 0.36 0.35 0.36 0.35 0.35 0.39 0.48 0.67 0.77 0.80 0.85 0.78 0.55 0.35 0.24 0.16 0.09 0.04
0.22 0.24 0.29 0.35 0.42 0.50 0.58 0.62 0.64 0.69 0.70 0.70 0.78 0.75 0.75 0.64 0.38 0.40 0.40 0.41 0.42 0.41 0.51 0.54 0.57 0.55 0.53 0.53 0.59 0.69 0.65 0.65 0.68 0.48 0.34 0.20 0.12 0.10
0.30 0.33 0.32 0.37 0.50 0.58 0.64 0.68 0.73 0.80 0.85 0.81 0.84 0.86 0.93 0.84 0.67 0.61 0.44 0.44 0.47 0.50 0.64 0.73 0.68 0.71 0.69 0.59 0.60 0.62 0.61 0.55 0.51 0.42 0.31 0.24 0.18 0.15
0.31 0.33 0.39 0.47 0.55 0.67 0.74 0.77 0.76 0.77 0.78 0.77 0.87 0.79 0.71 0.50 0.38 0.41 0.57 0.74 0.90 0.83 0.61 0.74 0.71 0.69 0.62 0.54 0.65 0.61 0.59 0.61 0.52 0.36 0.28 0.21 0.17 0.13
0.31 0.31 0.35 0.45 0.51 0.57 0.69 0.78 0.89 0.92 0.81 0.74 0.73 0.71 0.65 0.60 0.59 0.63 0.57 0.36 0.37 0.47 0.56 0.96 0.97 0.78 0.62 0.56 0.59 0.53 0.58 0.60 0.51 0.40 0.29 0.27 0.22 0.16
0.26 0.32 0.34 0.39 0.51 0.58 0.59 0.58 0.62 0.66 0.66 0.71 0.77 0.81 0.66 0.59 0.60 0.64 0.65 0.83 1.05 1.02 0.96 1.11 1.03 0.87 0.77 0.67 0.66 0.56 0.62 0.62 0.60 0.50 0.34 0.31 0.29 0.22
0.28 0.30 0.35 0.36 0.44 0.49 0.49 0.51 0.54 0.54 0.54 0.59 0.65 0.76 0.82 0.93 0.92 1.01 1.13 0.98 1.05 1.13 1.08 0.80 0.90 0.93 1.03 1.10 1.04 0.88 0.78 0.76 0.76 0.70 0.55 0.45 0.38 0.25
0.21 0.28 0.40 0.43 0.40 0.37 0.40 0.39 0.39 0.41 0.39 0.41 0.46 0.55 0.61 0.68 0.69 0.52 0.46 0.54 0.61 0.91 0.86 0.60 0.71 0.74 1.04 1.16 1.10 1.12 1.03 0.80 0.70 0.63 0.53 0.43 0.32 0.17
0.29 0.29 0.33 0.40 0.37 0.35 0.32 0.32 0.31 0.35 0.37 0.34 0.36 0.44 0.52 0.59 0.64 0.62 0.53 0.38 0.45 0.45 0.33 0.36 0.49 0.55 0.41 0.59 0.88 1.01 0.92 0.93 0.79 0.67 0.45 0.28 0.18 0.08
0.31 0.33 0.43 0.44 0.34 0.28 0.27 0.27 0.29 0.31 0.30 0.31 0.34 0.39 0.40 0.43 0.51 0.57 0.57 0.50 0.34 0.31 0.40 0.21 0.29 0.23 0.20 0.31 0.54 0.78 0.83 0.72 0.52 0.47 0.32 0.21 0.14 0.05
0.23 0.39 0.46 0.40 0.33 0.31 0.29 0.23 0.22 0.21 0.21 0.24 0.26 0.29 0.33 0.40 0.44 0.48 0.51 0.39 0.42 0.52 0.36 0.21 0.15 0.23 0.19 0.19 0.26 0.34 0.45 0.56 0.39 0.24 0.17 0.11 0.05 0.01
0.39 0.47 0.41 0.31 0.28 0.31 0.29 0.25 0.22 0.20 0.20 0.18 0.19 0.23 0.26 0.32 0.33 0.29 0.25 0.26 0.22 0.34 0.35 0.32 0.28 0.17 0.26 0.26 0.18 0.28 0.18 0.21 0.24 0.14 0.08 0.06 0.03 0.00
0.32 0.34 0.32 0.26 0.26 0.25 0.25 0.26 0.27 0.27 0.22 0.20 0.18 0.19 0.19 0.20 0.23 0.25 0.16 0.11 0.09 0.14 0.21 0.28 0.29 0.25 0.24 0.17 0.22 0.19 0.17 0.13 0.11 0.08 0.04 0.04 0.03 0.01
0.30 0.27 0.28 0.29 0.29 0.26 0.29 0.33 0.31 0.25 0.19 0.18 0.18 0.16 0.16 0.15 0.15 0.18 0.16 0.12 0.09 0.14 0.11 0.15 0.13 0.12 0.11 0.21 0.16 0.12 0.14 0.11 0.09 0.05 0.02 0.01 0.02 0.00
0.31 0.27 0.26 0.27 0.26 0.25 0.30 0.31 0.29 0.24 0.18 0.16 0.15 0.15 0.13 0.13 0.11 0.11 0.13 0.11 0.11 0.10 0.11 0.12 0.07 0.02 0.02 0.03 0.14 0.11 0.05 0.05 0.04 0.04 0.03 0.01 0.00 0.00
0.22 0.20 0.23 0.25 0.21 0.24 0.26 0.25 0.22 0.18 0.15 0.14 0.12 0.12 0.10 0.09 0.09 0.09 0.09 0.08 0.06 0.07 0.08 0.08 0.04 0.03 0.02 0.01 0.04 0.10 0.09 0.02 0.01 0.01 0.01 0.00 0.00 0.00
0.19 0.20 0.18 0.19 0.22 0.23 0.20 0.21 0.18 0.15 0.13 0.11 0.09 0.09 0.08 0.07 0.07 0.06 0.06 0.05 0.03 0.02 0.02 0.03 0.02 0.01 0.01 0.00 0.01 0.03 0.03 0.02 0.00 0.01 0.00 0.01 0.01 0.00
0.19 0.17 0.17 0.16 0.18 0.18 0.17 0.16 0.15 0.12 0.11 0.09 0.07 0.06 0.06 0.05 0.03 0.03 0.03 0.02 0.01 0.01 0.01 0.00 0.00 0.00 0.00 0.00 0.00 0.01 0.01 0.00 0.00 0.00 0.00 0.01 0.01 0.01
0.13 0.12 0.16 0.16 0.16 0.16 0.14 0.14 0.12 0.11 0.08 0.07 0.05 0.05 0.04 0.03 0.03 0.02 0.01 0.01 0.00 0.00 0.00 0.00 0.00 0.00 0.00 0.00 0.00 0.00 0.00 0.00 0.00 0.00 0.00 0.00 0.00 0.00

GFSNE_prec_precacc24_243.txt.gz
Total_Precipitation_Accumulation
0.09 0.10 0.12 0.10 0.16 0.20 0.25 0.32 0.48 0.57 0.35 0.09 0.04 0.03 0.05 0.07 0.09 0.08 0.07 0.15 0.32 0.45 0.48 0.58 0.76 0.85 0.89 0.82 0.87 0.85 0.87 0.96 0.92 0.60 0.37 0.29 0.22 0.17
0.15 0.14 0.13 0.13 0.13 0.13 0.14 0.18 0.26 0.39 0.36 0.13 0.05 0.02 0.03 0.04 0.06 0.10 0.05 0.08 0.12 0.25 0.44 0.59 0.80 1.06 1.20 1.23 1.18 1.20 1.14 0.94 0.81 0.64 0.30 0.23 0.24 0.22
0.08 0.07 0.05 0.06 0.09 0.09 0.10 0.13 0.15 0.26 0.35 0.16 0.15 0.11 0.10 0.09 0.07 0.10 0.08 0.10 0.08 0.09 0.15 0.32 0.54 0.73 1.05 1.37 1.32 1.22 1.43 1.54 1.38 1.08 0.59 0.31 0.24 0.18
0.02 0.01 0.02 0.04 0.08 0.10 0.10 0.10 0.10 0.14 0.23 0.23 0.26 0.24 0.16 0.10 0.07 0.06 0.10 0.18 0.19 0.21 0.20 0.20 0.29 0.52 0.69 0.82 1.19 1.42 1.39 1.44 1.64 1.52 1.20 0.63 0.39 0.23
0.01 0.02 0.03 0.09 0.13 0.13 0.14 0.12 0.12 0.15 0.22 0.34 0.46 0.35 0.24 0.19 0.14 0.16 0.18 0.29 0.36 0.35 0.34 0.33 0.33 0.39 0.49 0.68 0.84 1.02 1.30 1.53 1.43 1.47 1.46 1.08 0.75 0.54
0.02 0.04 0.05 0.08 0.11 0.16 0.23 0.24 0.22 0.29 0.33 0.37 0.49 0.49 0.49 0.42 0.24 0.28 0.34 0.38 0.38 0.41 0.47 0.51 0.55 0.54 0.52 0.53 0.61 0.77 0.88 1.00 1.37 1.47 1.36 1.24 0.91 0.82
0.02 0.03 0.03 0.04 0.09 0.18 0.23 0.25 0.31 0.41 0.49 0.47 0.53 0.54 0.61 0.51 0.40 0.40 0.30 0.31 0.37 0.44 0.57 0.68 0.65 0.68 0.67 0.59 0.60 0.63 0.70 0.83 0.96 1.19 1.29 1.11 0.97 0.76
0.01 0.01 0.01 0.03 0.08 0.16 0.22 0.27 0.28 0.32 0.40 0.46 0.58 0.55 0.46 0.27 0.16 0.23 0.39 0.55 0.73 0.74 0.53 0.67 0.66 0.67 0.62 0.55 0.65 0.62 0.61 0.70 0.81 0.99 1.14 1.03 0.77 0.59
0.00 0.00 0.01 0.04 0.08 0.14 0.21 0.26 0.33 0.38 0.36 0.37 0.43 0.42 0.37 0.31 0.35 0.42 0.39 0.23 0.26 0.41 0.47 0.89 0.96 0.77 0.62 0.56 0.59 0.53 0.58 0.65 0.64 0.72 0.96 1.21 0.80 0.67
0.00 0.01 0.05 0.08 0.17 0.20 0.20 0.20 0.24 0.28 0.28 0.37 0.46 0.53 0.45 0.39 0.47 0.57 0.60 0.73 0.93 0.97 0.91 1.07 1.02 0.87 0.77 0.67 0.66 0.56 0.62 0.65 0.71 0.76 0.75 1.10 1.02 0.83
0.00 0.03 0.10 0.12 0.20 0.25 0.25 0.25 0.25 0.24 0.28 0.36 0.47 0.63 0.70 0.80 0.82 0.94 1.04 0.92 1.02 1.12 1.07 0.80 0.90 0.93 1.03 1.10 1.04 0.89 0.79 0.82 0.89 1.00 1.09 1.07 1.02 0.89
0.00 0.05 0.17 0.19 0.18 0.19 0.24 0.26 0.24 0.23 0.23 0.26 0.33 0.45 0.52 0.60 0.62 0.48 0.46 0.55 0.61 0.91 0.86 0.61 0.72 0.74 1.04 1.17 1.12 1.14 1.09 0.92 0.83 0.81 0.80 0.83 0.82 0.81
0.01 0.04 0.13 0.21 0.19 0.21 0.22 0.23 0.24 0.26 0.28 0.25 0.29 0.37 0.46 0.53 0.60 0.59 0.52 0.38 0.48 0.48 0.34 0.40 0.51 0.56 0.42 0.61 0.94 1.14 1.01 1.12 1.03 0.92 0.78 0.77 0.71 0.61
0.03 0.05 0.15 0.23 0.19 0.20 0.23 0.23 0.24 0.26 0.25 0.27 0.29 0.33 0.35 0.39 0.48 0.56 0.57 0.52 0.39 0.35 0.43 0.27 0.32 0.24 0.21 0.33 0.61 0.97 1.06 1.03 0.79 0.95 1.00 1.10 1.04 0.80
0.03 0.08 0.18 0.23 0.22 0.26 0.26 0.22 0.21 0.21 0.20 0.22 0.24 0.27 0.32 0.39 0.44 0.50 0.53 0.42 0.45 0.56 0.41 0.27 0.19 0.26 0.23 0.20 0.34 0.51 0.64 0.96 0.83 0.68 0.69 0.73 0.81 0.73
0.08 0.14 0.19 0.21 0.24 0.27 0.25 0.24 0.21 0.20 0.20 0.18 0.19 0.23 0.28 0.35 0.38 0.33 0.30 0.30 0.27 0.40 0.42 0.39 0.35 0.23 0.31 0.34 0.23 0.44 0.33 0.48 0.73 0.67 0.54 0.57 0.54 0.35
0.11 0.12 0.15 0.18 0.22 0.21 0.23 0.25 0.26 0.27 0.23 0.20 0.18 0.20 0.22 0.23 0.28 0.29 0.23 0.19 0.16 0.21 0.31 0.41 0.38 0.34 0.37 0.27 0.34 0.33 0.33 0.33 0.40 0.47 0.32 0.32 0.25 0.10
0.12 0.12 0.15 0.18 0.20 0.19 0.27 0.34 0.31 0.26 0.20 0.18 0.18 0.18 0.19 0.19 0.20 0.23 0.22 0.19 0.15 0.21 0.19 0.23 0.18 0.18 0.17 0.38 0.31 0.27 0.34 0.34 0.37 0.30 0.16 0.08 0.10 0.02
0.13 0.10 0.13 0.17 0.20 0.23 0.30 0.32 0.31 0.25 0.18 0.17 0.16 0.17 0.16 0.16 0.15 0.16 0.18 0.16 0.16 0.16 0.18 0.21 0.14 0.06 0.07 0.12 0.42 0.31 0.18 0.22 0.20 0.22 0.19 0.13 0.08 0.03
0.09 0.08 0.12 0.17 0.18 0.24 0.27 0.26 0.23 0.20 0.17 0.15 0.14 0.14 0.14 0.14 0.13 0.13 0.13 0.12 0.11 0.13 0.16 0.18 0.14 0.12 0.04 0.02 0.12 0.37 0.28 0.13 0.09 0.09 0.09 0.06 0.03 0.01
0.08 0.10 0.10 0.15 0.21 0.24 0.22 0.23 0.20 0.16 0.14 0.13 0.12 0.11 0.12 0.10 0.09 0.08 0.08 0.08 0.06 0.05 0.05 0.08 0.10 0.04 0.03 0.01 0.04 0.13 0.21 0.17 0.08 0.05 0.04 0.03 0.02 0.01
0.09 0.11 0.13 0.14 0.17 0.18 0.18 0.18 0.16 0.14 0.13 0.10 0.09 0.08 0.09 0.09 0.06 0.06 0.05 0.04 0.02 0.02 0.02 0.03 0.04 0.05 0.06 0.01 0.02 0.04 0.06 0.05 0.02 0.02 0.01 0.00 0.00 0.00
0.08 0.09 0.13 0.14 0.15 0.16 0.16 0.16 0.14 0.13 0.09 0.08 0.07 0.07 0.06 0.07 0.07 0.04 0.01 0.01 0.00 0.01 0.01 0.02 0.04 0.02 0.03 0.02 0.01 0.03 0.03 0.03 0.01 0.00 0.00 0.00 0.00 0.00

GFSNE_prec_precacc24_246.txt.gz
Total_Precipitation_Accumulation
0.07 0.06 0.05 0.04 0.06 0.10 0.15 0.24 0.41 0.46 0.26 0.06 0.03 0.02 0.04 0.05 0.06 0.07 0.07 0.13 0.30 0.43 0.47 0.58 0.75 0.85 0.89 0.81 0.87 0.85 0.87 0.96 1.00 0.94 0.78 0.69 0.66 0.47
0.15 0.13 0.11 0.09 0.07 0.05 0.06 0.11 0.21 0.33 0.30 0.10 0.04 0.01 0.03 0.03 0.05 0.09 0.04 0.05 0.08 0.22 0.43 0.58 0.80 1.05 1.20 1.22 1.18 1.20 1.14 0.94 0.84 0.78 0.82 0.81 0.68 0.64
0.08 0.06 0.03 0.04 0.03 0.02 0.03 0.07 0.10 0.22 0.28 0.08 0.11 0.09 0.08 0.08 0.07 0.10 0.07 0.08 0.06 0.08 0.14 0.32 0.54 0.73 1.04 1.37 1.32 1.22 1.43 1.55 1.38 1.12 0.89 0.79 0.89 0.63
0.02 0.01 0.00 0.01 0.01 0.01 0.02 0.03 0.05 0.10 0.18 0.11 0.13 0.15 0.10 0.07 0.05 0.06 0.10 0.16 0.17 0.19 0.19 0.20 0.29 0.51 0.67 0.81 1.18 1.41 1.38 1.43 1.65 1.54 1.31 1.05 0.82 0.69
0.01 0.01 0.02 0.03 0.01 0.01 0.01 0.02 0.03 0.04 0.09 0.17 0.25 0.21 0.14 0.11 0.07 0.09 0.13 0.26 0.34 0.35 0.35 0.33 0.32 0.36 0.46 0.65 0.81 0.99 1.28 1.52 1.43 1.50 1.49 1.31 1.30 0.96
0.01 0.01 0.01 0.01 0.00 0.00 0.02 0.03 0.04 0.06 0.09 0.15 0.26 0.31 0.33 0.26 0.15 0.15 0.25 0.32 0.36 0.40 0.46 0.47 0.50 0.48 0.46 0.49 0.57 0.75 0.87 0.99 1.38 1.51 1.42 1.36 1.22 1.36
0.01 0.01 0.01 0.00 0.01 0.01 0.02 0.04 0.07 0.12 0.18 0.20 0.29 0.33 0.39 0.33 0.27 0.27 0.25 0.26 0.34 0.41 0.53 0.62 0.60 0.64 0.64 0.56 0.59 0.62 0.69 0.82 0.96 1.21 1.38 1.27 1.29 1.20
0.01 0.00 0.00 0.00 0.00 0.01 0.05 0.08 0.10 0.16 0.22 0.27 0.37 0.36 0.31 0.17 0.11 0.16 0.32 0.46 0.63 0.65 0.49 0.59 0.58 0.57 0.54 0.50 0.62 0.60 0.61 0.70 0.81 0.99 1.16 1.13 1.08 1.01
0.00 0.00 0.00 0.00 0.01 0.03 0.07 0.08 0.10 0.14 0.18 0.23 0.28 0.30 0.27 0.21 0.23 0.29 0.31 0.23 0.26 0.36 0.42 0.73 0.79 0.63 0.54 0.52 0.58 0.51 0.57 0.65 0.64 0.72 0.99 1.34 1.09 1.14
0.00 0.00 0.00 0.00 0.03 0.07 0.08 0.06 0.06 0.08 0.10 0.15 0.18 0.23 0.23 0.21 0.33 0.47 0.51 0.58 0.77 0.83 0.77 0.92 0.92 0.78 0.72 0.66 0.65 0.55 0.62 0.65 0.71 0.77 0.78 1.32 1.41 1.31
0.00 0.00 0.01 0.00 0.05 0.10 0.11 0.11 0.09 0.05 0.08 0.15 0.22 0.33 0.40 0.47 0.50 0.66 0.76 0.74 0.87 0.98 0.93 0.71 0.87 0.86 0.98 1.10 1.04 0.89 0.80 0.82 0.89 1.00 1.12 1.29 1.64 1.32
0.00 0.00 0.05 0.02 0.03 0.07 0.12 0.14 0.12 0.08 0.07 0.09 0.14 0.22 0.28 0.35 0.39 0.32 0.34 0.48 0.56 0.81 0.74 0.54 0.70 0.69 1.01 1.17 1.12 1.14 1.10 0.93 0.84 0.82 0.83 1.01 1.48 1.32
0.01 0.00 0.02 0.06 0.03 0.07 0.12 0.14 0.15 0.15 0.16 0.13 0.14 0.20 0.27 0.34 0.39 0.40 0.38 0.31 0.45 0.44 0.30 0.37 0.50 0.53 0.41 0.61 0.94 1.14 1.03 1.13 1.04 0.96 0.86 0.96 1.07 1.01
0.02 0.01 0.03 0.07 0.05 0.07 0.12 0.15 0.17 0.17 0.16 0.16 0.18 0.22 0.25 0.29 0.38 0.46 0.49 0.45 0.36 0.33 0.37 0.27 0.34 0.26 0.24 0.33 0.62 0.99 1.10 1.09 0.83 1.01 1.13 1.41 1.42 1.01
0.02 0.05 0.05 0.06 0.07 0.11 0.15 0.15 0.16 0.16 0.15 0.17 0.18 0.20 0.25 0.33 0.38 0.43 0.47 0.39 0.43 0.55 0.42 0.28 0.21 0.28 0.25 0.21 0.35 0.55 0.71 1.10 0.95 0.79 0.78 0.85 1.08 1.16
0.05 0.06 0.06 0.05 0.09 0.13 0.16 0.17 0.17 0.17 0.18 0.17 0.17 0.21 0.25 0.31 0.35 0.31 0.29 0.30 0.27 0.41 0.43 0.41 0.38 0.24 0.31 0.34 0.24 0.47 0.38 0.60 0.91 0.85 0.64 0.69 0.79 0.76
0.09 0.06 0.06 0.08 0.09 0.13 0.18 0.20 0.23 0.26 0.22 0.20 0.18 0.19 0.21 0.23 0.28 0.29 0.23 0.19 0.17 0.22 0.34 0.44 0.40 0.34 0.38 0.29 0.35 0.36 0.38 0.44 0.56 0.69 0.45 0.51 0.57 0.53
0.09 0.05 0.06 0.08 0.09 0.12 0.20 0.27 0.29 0.25 0.20 0.19 0.18 0.18 0.19 0.19 0.20 0.23 0.22 0.19 0.16 0.21 0.21 0.26 0.20 0.18 0.17 0.41 0.35 0.31 0.41 0.43 0.50 0.44 0.22 0.13 0.24 0.21
0.09 0.06 0.06 0.08 0.09 0.13 0.22 0.28 0.29 0.25 0.19 0.17 0.16 0.17 0.17 0.17 0.16 0.16 0.19 0.17 0.17 0.17 0.20 0.23 0.16 0.06 0.07 0.14 0.52 0.38 0.23 0.29 0.26 0.31 0.27 0.16 0.11 0.08
0.06 0.05 0.07 0.10 0.08 0.16 0.23 0.25 0.23 0.20 0.17 0.15 0.14 0.15 0.15 0.15 0.14 0.13 0.14 0.13 0.12 0.14 0.18 0.22 0.18 0.13 0.04 0.02 0.17 0.52 0.37 0.20 0.14 0.17 0.19 0.15 0.08 0.02
0.05 0.06 0.07 0.09 0.14 0.20 0.21 0.23 0.20 0.17 0.15 0.13 0.12 0.12 0.12 0.12 0.10 0.09 0.09 0.09 0.07 0.06 0.06 0.12 0.14 0.05 0.03 0.01 0.04 0.18 0.35 0.28 0.18 0.11 0.10 0.05 0.03 0.02
0.05 0.05 0.08 0.10 0.15 0.17 0.18 0.18 0.17 0.15 0.13 0.11 0.10 0.09 0.09 0.10 0.07 0.07 0.07 0.06 0.04 0.03 0.04 0.06 0.09 0.07 0.06 0.01 0.02 0.05 0.09 0.11 0.06 0.05 0.02 0.01 0.01 0.00
0.05 0.06 0.09 0.11 0.14 0.15 0.16 0.16 0.14 0.13 0.10 0.08 0.07 0.07 0.07 0.08 0.08 0.06 0.03 0.01 0.01 0.02 0.02 0.05 0.08 0.04 0.04 0.03 0.01 0.03 0.03 0.04 0.02 0.00 0.00 0.00 0.00 0.00

GFSNE_prec_precacc24_249.txt.gz
Total_Precipitation_Accumulation
0.07 0.06 0.05 0.03 0.03 0.04 0.06 0.12 0.27 0.31 0.15 0.03 0.02 0.02 0.03 0.04 0.04 0.05 0.06 0.13 0.28 0.42 0.47 0.56 0.74 0.84 0.88 0.81 0.86 0.85 0.87 0.96 1.00 0.94 0.78 0.70 0.70 0.69
0.15 0.13 0.11 0.09 0.07 0.05 0.04 0.07 0.14 0.25 0.18 0.02 0.01 0.01 0.03 0.03 0.03 0.05 0.03 0.03 0.06 0.21 0.42 0.57 0.79 1.05 1.20 1.22 1.18 1.20 1.14 0.94 0.83 0.78 0.82 0.81 0.73 0.84
0.07 0.06 0.03 0.04 0.02 0.02 0.02 0.05 0.07 0.18 0.21 0.02 0.03 0.04 0.05 0.05 0.06 0.07 0.06 0.05 0.03 0.05 0.12 0.31 0.54 0.73 1.04 1.37 1.32 1.22 1.42 1.54 1.36 1.09 0.86 0.77 0.94 0.84
0.01 0.00 0.00 0.01 0.01 0.01 0.01 0.01 0.02 0.07 0.12 0.03 0.02 0.05 0.05 0.04 0.04 0.05 0.07 0.10 0.10 0.13 0.14 0.17 0.27 0.52 0.70 0.83 1.18 1.40 1.36 1.41 1.61 1.51 1.29 1.04 0.83 1.06
0.00 0.01 0.02 0.03 0.01 0.01 0.00 0.01 0.01 0.01 0.03 0.04 0.02 0.05 0.06 0.05 0.04 0.04 0.07 0.15 0.20 0.22 0.24 0.25 0.29 0.36 0.47 0.67 0.82 0.98 1.26 1.50 1.42 1.50 1.49 1.31 1.31 1.09
0.01 0.01 0.01 0.01 0.00 0.00 0.00 0.00 0.01 0.01 0.02 0.03 0.02 0.05 0.10 0.09 0.07 0.07 0.13 0.18 0.21 0.27 0.34 0.38 0.45 0.44 0.44 0.47 0.57 0.74 0.86 0.99 1.37 1.51 1.42 1.36 1.24 1.41
0.01 0.01 0.01 0.00 0.00 0.00 0.00 0.01 0.01 0.02 0.03 0.03 0.04 0.07 0.12 0.10 0.10 0.13 0.16 0.16 0.21 0.29 0.41 0.54 0.55 0.59 0.61 0.55 0.58 0.62 0.68 0.81 0.95 1.21 1.38 1.28 1.31 1.30
0.01 0.00 0.00 0.00 0.00 0.00 0.01 0.01 0.02 0.03 0.06 0.08 0.10 0.10 0.11 0.06 0.05 0.12 0.26 0.33 0.40 0.44 0.40 0.51 0.53 0.53 0.51 0.47 0.60 0.57 0.56 0.64 0.78 0.99 1.17 1.14 1.11 1.13
0.00 0.00 0.00 0.00 0.00 0.00 0.02 0.03 0.03 0.05 0.08 0.11 0.15 0.15 0.13 0.07 0.10 0.19 0.26 0.20 0.21 0.28 0.36 0.61 0.70 0.57 0.47 0.45 0.49 0.44 0.48 0.60 0.63 0.72 0.99 1.34 1.12 1.23
0.00 0.00 0.00 0.00 0.01 0.01 0.01 0.01 0.02 0.03 0.06 0.06 0.08 0.12 0.13 0.15 0.23 0.36 0.43 0.43 0.57 0.63 0.58 0.73 0.75 0.63 0.59 0.54 0.55 0.47 0.54 0.61 0.70 0.78 0.78 1.32 1.43 1.42
0.00 0.00 0.00 0.00 0.02 0.03 0.02 0.02 0.02 0.02 0.06 0.09 0.10 0.14 0.19 0.23 0.27 0.46 0.54 0.60 0.71 0.75 0.73 0.57 0.73 0.71 0.82 1.00 0.98 0.83 0.73 0.80 0.89 1.01 1.13 1.30 1.69 1.54
0.00 0.00 0.03 0.02 0.01 0.03 0.06 0.06 0.05 0.03 0.04 0.05 0.06 0.09 0.10 0.14 0.19 0.18 0.25 0.44 0.47 0.65 0.57 0.47 0.58 0.57 0.93 1.12 1.09 1.09 1.04 0.93 0.85 0.83 0.83 1.03 1.67 1.64
0.01 0.00 0.01 0.03 0.02 0.04 0.05 0.05 0.08 0.10 0.11 0.07 0.07 0.10 0.12 0.14 0.18 0.23 0.28 0.29 0.41 0.40 0.24 0.38 0.44 0.47 0.42 0.60 0.91 1.09 1.01 1.15 1.05 0.99 0.93 1.14 1.55 1.54
0.02 0.01 0.03 0.04 0.03 0.03 0.03 0.06 0.11 0.12 0.10 0.10 0.11 0.12 0.15 0.17 0.25 0.33 0.36 0.32 0.30 0.29 0.29 0.29 0.35 0.27 0.26 0.33 0.60 0.97 1.10 1.12 0.86 1.07 1.22 1.77 1.91 1.46
0.02 0.04 0.04 0.04 0.04 0.04 0.06 0.08 0.10 0.11 0.11 0.13 0.13 0.12 0.16 0.22 0.27 0.31 0.36 0.30 0.31 0.43 0.36 0.28 0.22 0.27 0.25 0.20 0.34 0.55 0.72 1.16 1.05 0.92 0.89 1.07 1.48 1.69
0.04 0.05 0.04 0.04 0.04 0.05 0.06 0.07 0.10 0.13 0.16 0.16 0.15 0.16 0.19 0.25 0.28 0.25 0.23 0.23 0.21 0.34 0.40 0.41 0.37 0.23 0.31 0.34 0.24 0.48 0.38 0.64 1.06 1.02 0.76 0.90 1.07 1.09
0.07 0.04 0.04 0.04 0.04 0.05 0.06 0.10 0.16 0.20 0.19 0.19 0.17 0.18 0.19 0.21 0.26 0.26 0.20 0.17 0.15 0.21 0.34 0.46 0.40 0.34 0.39 0.29 0.36 0.38 0.40 0.47 0.67 0.90 0.55 0.67 0.85 0.88
0.07 0.03 0.04 0.05 0.05 0.05 0.08 0.15 0.22 0.20 0.17 0.17 0.17 0.17 0.19 0.19 0.19 0.22 0.22 0.19 0.16 0.22 0.23 0.30 0.20 0.18 0.17 0.42 0.37 0.33 0.42 0.46 0.57 0.56 0.35 0.25 0.55 0.68
0.05 0.04 0.04 0.05 0.05 0.07 0.11 0.19 0.23 0.21 0.17 0.17 0.16 0.16 0.16 0.16 0.15 0.16 0.19 0.17 0.17 0.17 0.21 0.24 0.16 0.06 0.07 0.16 0.57 0.44 0.25 0.32 0.28 0.37 0.38 0.21 0.23 0.38
0.02 0.03 0.04 0.05 0.05 0.09 0.13 0.19 0.19 0.17 0.16 0.15 0.14 0.15 0.15 0.15 0.14 0.13 0.14 0.13 0.12 0.14 0.18 0.24 0.18 0.13 0.04 0.02 0.19 0.65 0.46 0.27 0.18 0.25 0.29 0.23 0.16 0.13
0.02 0.03 0.04 0.04 0.07 0.12 0.14 0.19 0.18 0.16 0.15 0.14 0.12 0.12 0.13 0.12 0.11 0.09 0.10 0.09 0.07 0.06 0.06 0.13 0.14 0.05 0.03 0.01 0.05 0.22 0.49 0.43 0.30 0.18 0.16 0.08 0.06 0.05
0.03 0.03 0.03 0.04 0.07 0.12 0.14 0.16 0.16 0.15 0.13 0.11 0.10 0.09 0.09 0.10 0.08 0.08 0.08 0.07 0.04 0.03 0.04 0.08 0.11 0.08 0.06 0.01 0.02 0.06 0.13 0.18 0.13 0.11 0.07 0.03 0.02 0.01
0.03 0.03 0.04 0.04 0.08 0.11 0.13 0.15 0.14 0.13 0.10 0.08 0.07 0.08 0.07 0.08 0.09 0.08 0.04 0.01 0.02 0.03 0.03 0.06 0.09 0.04 0.05 0.03 0.02 0.04 0.04 0.06 0.05 0.02 0.01 0.00 0.00 0.00

GFSNE_prec_precacc24_255.txt.gz
Total_Precipitation_Accumulation
0.00 0.00 0.00 0.00 0.00 0.00 0.02 0.07 0.21 0.23 0.09 0.01 0.01 0.00 0.01 0.02 0.02 0.03 0.05 0.11 0.24 0.33 0.32 0.43 0.65 0.78 0.84 0.78 0.84 0.82 0.84 0.95 1.00 0.96 0.81 0.71 0.70 0.70
0.00 0.00 0.00 0.00 0.00 0.00 0.00 0.04 0.11 0.20 0.15 0.01 0.00 0.00 0.01 0.01 0.01 0.02 0.02 0.02 0.04 0.15 0.30 0.41 0.64 0.94 1.12 1.16 1.13 1.17 1.13 0.93 0.82 0.79 0.84 0.82 0.72 0.83
0.00 0.00 0.00 0.00 0.00 0.00 0.01 0.04 0.06 0.16 0.18 0.01 0.01 0.01 0.02 0.02 0.00 0.00 0.01 0.01 0.01 0.01 0.04 0.16 0.33 0.55 0.91 1.27 1.24 1.17 1.40 1.53 1.35 1.11 0.87 0.76 0.92 0.83
0.00 0.00 0.01 0.01 0.01 0.01 0.00 0.01 0.02 0.06 0.10 0.02 0.01 0.01 0.01 0.01 0.01 0.01 0.01 0.00 0.01 0.01 0.02 0.02 0.06 0.29 0.51 0.69 1.07 1.33 1.33 1.40 1.60 1.50 1.29 1.04 0.83 1.06
0.01 0.03 0.03 0.04 0.01 0.01 0.00 0.01 0.01 0.01 0.03 0.03 0.01 0.01 0.01 0.02 0.01 0.02 0.01 0.01 0.01 0.02 0.03 0.02 0.03 0.09 0.23 0.48 0.67 0.89 1.20 1.45 1.39 1.49 1.50 1.31 1.31 1.09
0.03 0.05 0.04 0.01 0.00 0.00 0.00 0.00 0.00 0.01 0.01 0.02 0.02 0.01 0.02 0.02 0.03 0.03 0.02 0.03 0.03 0.03 0.02 0.02 0.03 0.06 0.10 0.20 0.38 0.62 0.78 0.95 1.34 1.50 1.42 1.36 1.23 1.39
0.08 0.05 0.02 0.00 0.00 0.00 0.00 0.00 0.01 0.02 0.02 0.02 0.02 0.02 0.02 0.02 0.03 0.03 0.04 0.02 0.02 0.02 0.02 0.03 0.04 0.07 0.15 0.19 0.31 0.46 0.58 0.76 0.92 1.19 1.36 1.25 1.29 1.28
0.07 0.03 0.01 0.00 0.00 0.00 0.01 0.01 0.01 0.02 0.02 0.03 0.02 0.02 0.02 0.02 0.02 0.04 0.05 0.07 0.07 0.03 0.06 0.05 0.04 0.06 0.11 0.18 0.35 0.40 0.45 0.56 0.71 0.94 1.12 1.10 1.09 1.12
0.04 0.01 0.00 0.00 0.00 0.00 0.02 0.01 0.02 0.02 0.02 0.02 0.03 0.01 0.02 0.01 0.04 0.07 0.07 0.10 0.09 0.04 0.09 0.11 0.08 0.10 0.11 0.17 0.27 0.26 0.34 0.47 0.52 0.62 0.95 1.33 1.11 1.23
0.03 0.01 0.01 0.00 0.01 0.01 0.01 0.00 0.01 0.01 0.02 0.02 0.02 0.02 0.02 0.02 0.05 0.13 0.14 0.11 0.09 0.11 0.11 0.19 0.13 0.10 0.14 0.15 0.27 0.25 0.34 0.47 0.60 0.71 0.77 1.33 1.43 1.43
0.03 0.01 0.01 0.00 0.01 0.02 0.02 0.02 0.01 0.01 0.03 0.06 0.07 0.08 0.08 0.07 0.06 0.12 0.11 0.16 0.16 0.13 0.14 0.19 0.20 0.19 0.26 0.43 0.55 0.54 0.54 0.67 0.81 0.97 1.12 1.29 1.68 1.54
0.02 0.01 0.02 0.01 0.01 0.03 0.05 0.05 0.03 0.00 0.01 0.01 0.03 0.04 0.04 0.03 0.04 0.06 0.12 0.22 0.18 0.21 0.12 0.23 0.19 0.22 0.41 0.57 0.70 0.80 0.85 0.80 0.77 0.79 0.80 1.00 1.64 1.62
0.03 0.01 0.01 0.02 0.01 0.03 0.04 0.05 0.05 0.04 0.04 0.02 0.01 0.00 0.00 0.01 0.02 0.05 0.11 0.20 0.27 0.21 0.07 0.31 0.20 0.18 0.23 0.39 0.63 0.83 0.80 0.99 0.95 0.94 0.90 1.11 1.53 1.55
0.02 0.01 0.01 0.02 0.01 0.01 0.02 0.05 0.05 0.05 0.03 0.02 0.02 0.01 0.02 0.03 0.07 0.12 0.15 0.15 0.18 0.20 0.13 0.22 0.26 0.20 0.21 0.19 0.39 0.72 0.87 0.99 0.85 1.08 1.27 1.85 2.09 1.59
0.01 0.01 0.01 0.01 0.02 0.03 0.05 0.04 0.02 0.02 0.02 0.03 0.03 0.03 0.04 0.09 0.14 0.16 0.16 0.14 0.12 0.19 0.20 0.18 0.17 0.19 0.18 0.13 0.24 0.42 0.56 1.03 1.12 1.16 1.18 1.39 1.93 2.07
0.02 0.01 0.01 0.02 0.02 0.02 0.02 0.01 0.01 0.02 0.04 0.05 0.05 0.06 0.10 0.15 0.17 0.16 0.14 0.11 0.11 0.17 0.21 0.25 0.25 0.14 0.18 0.22 0.15 0.37 0.33 0.66 1.21 1.37 1.20 1.32 1.62 1.79
0.02 0.01 0.01 0.02 0.02 0.01 0.01 0.00 0.01 0.02 0.05 0.06 0.07 0.10 0.14 0.17 0.18 0.16 0.14 0.12 0.12 0.15 0.25 0.33 0.27 0.24 0.31 0.24 0.31 0.35 0.40 0.52 0.81 1.28 1.00 1.10 1.45 1.56
0.01 0.01 0.02 0.03 0.02 0.01 0.01 0.01 0.02 0.03 0.05 0.07 0.10 0.13 0.16 0.16 0.16 0.16 0.16 0.16 0.13 0.16 0.19 0.25 0.16 0.15 0.15 0.40 0.39 0.35 0.45 0.54 0.69 0.78 0.78 0.65 1.17 1.48
0.01 0.02 0.02 0.02 0.02 0.01 0.01 0.02 0.04 0.05 0.06 0.09 0.11 0.14 0.15 0.15 0.14 0.15 0.16 0.15 0.14 0.14 0.19 0.22 0.15 0.06 0.07 0.16 0.57 0.48 0.30 0.43 0.37 0.47 0.65 0.57 0.80 1.50
0.01 0.01 0.01 0.01 0.01 0.02 0.02 0.02 0.03 0.05 0.07 0.08 0.10 0.13 0.14 0.14 0.13 0.13 0.14 0.13 0.12 0.13 0.17 0.23 0.18 0.13 0.04 0.03 0.22 0.74 0.55 0.37 0.24 0.36 0.55 0.61 0.82 1.15
0.00 0.01 0.01 0.01 0.01 0.02 0.03 0.04 0.05 0.06 0.07 0.08 0.08 0.10 0.11 0.11 0.10 0.09 0.10 0.10 0.08 0.06 0.07 0.13 0.14 0.05 0.03 0.01 0.05 0.24 0.58 0.59 0.40 0.27 0.32 0.23 0.35 0.42
0.01 0.01 0.01 0.02 0.01 0.02 0.03 0.05 0.06 0.06 0.06 0.06 0.07 0.08 0.09 0.10 0.08 0.08 0.08 0.07 0.05 0.04 0.05 0.08 0.11 0.08 0.06 0.01 0.02 0.07 0.20 0.33 0.32 0.31 0.31 0.15 0.10 0.14
0.02 0.02 0.02 0.02 0.02 0.02 0.04 0.06 0.06 0.06 0.05 0.06 0.06 0.07 0.07 0.09 0.10 0.09 0.04 0.03 0.02 0.05 0.04 0.06 0.09 0.04 0.05 0.04 0.02 0.05 0.07 0.13 0.15 0.12 0.28 0.28 0.18 0.13

GFSNE_prec_precacc24_261.txt.gz
Total_Precipitation_Accumulation
0.01 0.00 0.00 0.00 0.00 0.00 0.00 0.01 0.04 0.04 0.01 0.00 0.00 0.00 0.00 0.00 0.00 0.00 0.00 0.00 0.01 0.02 0.03 0.11 0.18 0.21 0.32 0.60 0.74 0.72 0.71 0.78 0.84 0.83 0.72 0.68 0.71 0.72
0.02 0.00 0.00 0.00 0.00 0.00 0.00 0.01 0.04 0.09 0.06 0.00 0.00 0.00 0.00 0.00 0.00 0.00 0.00 0.00 0.00 0.00 0.01 0.04 0.11 0.27 0.32 0.47 0.86 0.99 0.96 0.76 0.69 0.70 0.77 0.80 0.73 0.84
0.00 0.00 0.00 0.00 0.00 0.01 0.01 0.02 0.04 0.06 0.07 0.01 0.01 0.01 0.02 0.02 0.00 0.00 0.00 0.00 0.00 0.00 0.00 0.02 0.04 0.06 0.21 0.38 0.45 0.78 1.09 1.26 1.15 1.00 0.79 0.73 0.91 0.84
0.05 0.05 0.05 0.04 0.03 0.03 0.02 0.02 0.03 0.04 0.07 0.03 0.01 0.01 0.01 0.01 0.01 0.01 0.01 0.00 0.00 0.00 0.01 0.01 0.01 0.03 0.06 0.13 0.28 0.48 0.76 0.93 1.23 1.23 1.13 0.97 0.80 1.06
0.12 0.10 0.10 0.11 0.12 0.11 0.08 0.07 0.04 0.03 0.03 0.03 0.01 0.01 0.01 0.02 0.01 0.01 0.01 0.01 0.01 0.02 0.02 0.02 0.02 0.04 0.04 0.05 0.11 0.23 0.47 0.76 0.90 1.16 1.27 1.17 1.23 1.06
0.09 0.10 0.13 0.13 0.12 0.11 0.08 0.05 0.03 0.02 0.01 0.02 0.01 0.01 0.02 0.02 0.03 0.02 0.02 0.03 0.02 0.03 0.01 0.00 0.01 0.02 0.02 0.01 0.03 0.10 0.24 0.36 0.71 1.04 1.09 1.18 1.13 1.31
0.16 0.18 0.19 0.16 0.13 0.08 0.05 0.04 0.02 0.02 0.02 0.01 0.01 0.01 0.01 0.01 0.02 0.02 0.03 0.02 0.02 0.01 0.01 0.01 0.02 0.01 0.01 0.01 0.01 0.02 0.10 0.29 0.46 0.80 1.07 1.04 1.14 1.17
0.24 0.22 0.18 0.13 0.08 0.05 0.02 0.01 0.01 0.01 0.02 0.02 0.02 0.02 0.02 0.02 0.02 0.04 0.05 0.06 0.06 0.02 0.04 0.02 0.01 0.01 0.01 0.01 0.01 0.01 0.02 0.10 0.30 0.63 0.90 0.94 0.95 1.01
0.18 0.16 0.12 0.08 0.07 0.03 0.02 0.01 0.01 0.01 0.01 0.01 0.03 0.01 0.02 0.01 0.04 0.07 0.06 0.10 0.08 0.02 0.07 0.05 0.00 0.01 0.00 0.00 0.01 0.00 0.01 0.06 0.14 0.32 0.72 1.10 0.92 1.10
0.14 0.12 0.09 0.06 0.05 0.03 0.01 0.01 0.00 0.00 0.01 0.01 0.02 0.02 0.02 0.02 0.05 0.13 0.13 0.08 0.04 0.01 0.04 0.07 0.01 0.01 0.00 0.00 0.00 0.00 0.00 0.03 0.12 0.28 0.47 1.04 1.16 1.23
0.09 0.05 0.04 0.04 0.03 0.01 0.01 0.01 0.00 0.00 0.01 0.03 0.05 0.06 0.07 0.06 0.05 0.11 0.08 0.12 0.07 0.01 0.01 0.09 0.01 0.01 0.00 0.00 0.00 0.01 0.03 0.08 0.16 0.32 0.60 0.86 1.33 1.31
0.05 0.04 0.06 0.03 0.02 0.00 0.01 0.01 0.01 0.00 0.00 0.00 0.01 0.02 0.02 0.03 0.03 0.04 0.08 0.17 0.11 0.10 0.01 0.17 0.03 0.06 0.09 0.01 0.02 0.02 0.08 0.16 0.17 0.22 0.32 0.61 1.36 1.49
0.08 0.06 0.04 0.01 0.00 0.00 0.01 0.01 0.02 0.01 0.01 0.00 0.00 0.00 0.00 0.00 0.00 0.01 0.03 0.11 0.17 0.12 0.03 0.28 0.12 0.07 0.11 0.04 0.06 0.13 0.12 0.26 0.30 0.36 0.51 0.88 1.41 1.50
0.07 0.05 0.03 0.01 0.00 0.00 0.00 0.01 0.00 0.00 0.00 0.00 0.00 0.00 0.01 0.00 0.00 0.01 0.02 0.04 0.10 0.14 0.06 0.18 0.20 0.16 0.18 0.07 0.09 0.21 0.29 0.43 0.42 0.71 1.10 1.74 2.01 1.59
0.06 0.03 0.01 0.00 0.00 0.00 0.00 0.00 0.00 0.00 0.00 0.01 0.00 0.00 0.00 0.01 0.01 0.02 0.03 0.03 0.03 0.05 0.07 0.09 0.13 0.10 0.11 0.06 0.13 0.23 0.31 0.63 0.84 1.03 1.22 1.48 2.07 2.23
0.04 0.02 0.01 0.00 0.00 0.00 0.00 0.00 0.00 0.01 0.00 0.01 0.01 0.01 0.01 0.03 0.05 0.04 0.05 0.05 0.06 0.08 0.08 0.11 0.13 0.08 0.06 0.10 0.08 0.24 0.26 0.59 1.07 1.34 1.44 1.48 1.85 2.08
0.02 0.02 0.01 0.01 0.01 0.00 0.00 0.00 0.00 0.00 0.01 0.00 0.00 0.01 0.03 0.04 0.05 0.05 0.07 0.09 0.09 0.10 0.15 0.19 0.12 0.10 0.15 0.14 0.18 0.23 0.30 0.45 0.79 1.38 1.19 1.28 1.82 2.04
0.01 0.01 0.01 0.01 0.01 0.01 0.00 0.01 0.00 0.01 0.01 0.01 0.01 0.02 0.04 0.05 0.05 0.06 0.08 0.09 0.08 0.09 0.13 0.16 0.09 0.08 0.07 0.22 0.29 0.29 0.33 0.46 0.72 0.92 0.94 0.79 1.56 2.03
0.02 0.01 0.01 0.01 0.01 0.01 0.01 0.01 0.01 0.01 0.01 0.01 0.01 0.03 0.04 0.05 0.06 0.07 0.07 0.07 0.08 0.08 0.11 0.14 0.10 0.04 0.05 0.14 0.44 0.42 0.32 0.43 0.42 0.59 0.83 0.69 1.14 2.33
0.01 0.01 0.01 0.01 0.01 0.01 0.01 0.01 0.01 0.01 0.02 0.02 0.02 0.04 0.05 0.06 0.06 0.06 0.06 0.07 0.07 0.08 0.11 0.16 0.15 0.10 0.03 0.04 0.22 0.71 0.54 0.40 0.26 0.48 0.88 1.03 1.71 2.46
0.01 0.01 0.00 0.01 0.01 0.01 0.02 0.02 0.02 0.02 0.02 0.02 0.03 0.04 0.05 0.06 0.05 0.04 0.05 0.06 0.05 0.05 0.06 0.10 0.12 0.04 0.03 0.01 0.06 0.23 0.61 0.68 0.47 0.37 0.52 0.51 0.91 0.89
0.01 0.01 0.01 0.01 0.00 0.01 0.02 0.02 0.03 0.03 0.03 0.03 0.04 0.04 0.05 0.06 0.06 0.06 0.07 0.07 0.05 0.05 0.05 0.08 0.11 0.08 0.06 0.01 0.03 0.08 0.23 0.41 0.44 0.42 0.42 0.18 0.14 0.22
0.02 0.02 0.01 0.01 0.01 0.01 0.02 0.03 0.03 0.03 0.03 0.02 0.03 0.04 0.04 0.06 0.08 0.08 0.04 0.03 0.03 0.05 0.04 0.06 0.09 0.04 0.05 0.04 0.03 0.06 0.10 0.17 0.29 0.23 0.58 0.52 0.30 0.24